Content
SEND FEEDBACK

Daily
Averages
Monthly
Summary
United States of America

WESTON, MISSOURI


Home > North America > United States > Missouri
Elevation: 784 feet     Latitude: 39 22N     Longitude: 094 55W

WEATHER
 
SELECT A DAY
Number of Records: 191,698;   Date Range: 1/1/95 - 7/26/14
 
SHARE

PRINT THIS DATA

[ ← Previous Day ]
WEATHER ALMANAC - FEBRUARY 13, 2013
[ Next Day → ]
[ °C ]   °F
Weather ElementAverageHighLow
Temperature39.2 °F55 °F (2:53 pm)24.1 °F (6:53 am)
Dewpoint22.2 °F25 °F (10:53 am)19 °F (5:53 am)
Humidity54.2 %81 % (6:53 am)29 % (2:53 pm)
Barometer29.86 in29.94 in (1:53 am)29.80 in (4:53 pm)
Wind Speed8.6 mph13.8 mph (2:53 pm)
Wind Gust23 mph (1:53 pm)
Weather ElementAverage
Visibility10 mi
Wind DirectionWSW (241.7 °)

Weather ElementTotal
Precipitation---
Heating Degree Days25.5 (Base 65)
Averaged from 23 records on February 13, 2013
WEATHER CONDITIONS BREAKOUT
WIND DIRECTION BREAKOUT
WEATHER BY HOUR - FEBRUARY 13, 2013
[ °C ]   °F
Local TimeTemperatureDewpointHumidityBarometerVisibilityWind DirectionWind SpeedGust SpeedPrecipitationEventsConditions
1:53 AM28.0 °F19.9 °F72 %29.94 in10.0 miSW (230°)6.9 mphClear
2:53 AM28.0 °F19.9 °F72 %29.92 in10.0 miWSW (240°)8.1 mphClear
3:53 AM27.0 °F19.9 °F75 %29.90 in10.0 miSW (230°)8.1 mphClear
4:53 AM26.1 °F19.9 °F78 %29.90 in10.0 miWSW (250°)6.9 mphClear
5:53 AM25.0 °F19.0 °F78 %29.90 in10.0 miWSW (240°)5.8 mphClear
6:53 AM24.1 °F19.0 °F81 %29.91 in10.0 miWSW (250°)6.9 mphClear
7:53 AM25.0 °F19.9 °F81 %29.91 in9.0 miSW (220°)5.8 mphPartly Cloudy
8:53 AM32.0 °F23.0 °F69 %29.92 in10.0 miSW (220°)6.9 mphPartly Cloudy
9:53 AM37.0 °F24.1 °F59 %29.92 in10.0 miWSW (240°)6.9 mphPartly Cloudy
10:53 AM41.0 °F25.0 °F53 %29.91 in10.0 miSW (230°)5.8 mphScattered Clouds
11:53 AM46.9 °F25.0 °F42 %29.90 in10.0 miWest (260°)10.4 mphMostly Cloudy
12:53 PM52.0 °F24.1 °F34 %29.86 in10.0 miWSW (250°)11.5 mphMostly Cloudy
1:53 PM54.0 °F24.1 °F31 %29.83 in10.0 miWest (270°)12.7 mph23.0 mphScattered Clouds
2:53 PM55.0 °F23.0 °F29 %29.81 in10.0 miWest (260°)13.8 mphPartly Cloudy
3:53 PM54.0 °F21.9 °F29 %29.81 in10.0 miWSW (240°)13.8 mph23.0 mphPartly Cloudy
4:53 PM53.1 °F21.9 °F30 %29.80 in10.0 miWest (260°)13.8 mphPartly Cloudy
5:53 PM48.0 °F24.1 °F39 %29.81 in10.0 miWSW (250°)8.1 mphPartly Cloudy
6:53 PM44.1 °F24.1 °F45 %29.82 in10.0 miWSW (240°)6.9 mphPartly Cloudy
7:53 PM42.1 °F23.0 °F47 %29.83 in10.0 miWSW (240°)8.1 mphClear
8:53 PM41.0 °F23.0 °F49 %29.81 in10.0 miSW (220°)8.1 mphClear
9:53 PM41.0 °F23.0 °F49 %29.81 in10.0 miSW (230°)6.9 mphPartly Cloudy
10:53 PM39.9 °F23.0 °F51 %29.81 in10.0 miWSW (240°)9.2 mphClear
11:53 PM37.9 °F21.9 °F53 %29.82 in10.0 miWSW (250°)6.9 mphClear
Hourly data recorded from KMCI, located miles away from Weston, Missouri







STORIES FROM OUR PARTNERS